Weather in Seminyak

Indonesia     8°42′31″S   115°10′10″E
temp.,
°C
wind,
m/s
gust,
m/s
humid.,
%
clouds,
%
prec.,
mm/h
press.,
hPa
HPBL,
m
22 january, fri
fri2223:00+27nw3479100 2.9 1009231
02:00+27nw4577100 3.3 1007363
05:00+27wnw4576100 0.3 1007433
08:00+27wnw4576100 1.5 1009459
11:00+28w457596 0.3 1009557
14:00+28wsw567392 0.4 1007795
17:00+28wsw5675100 1.0 1006475
20:00+28w4575100 3.6 1008393
23 january, sat
sat2323:00+28nw4576100 1.1 1009383
02:00+27wnw5676100 1.1 1007480
05:00+28wnw5776100 0.0 1007708
08:00+28wnw5675100 0.4 1009664
11:00+28wnw6874100 1.0 1009840
14:00+28wsw5675100 3.7 1007511
17:00+28wsw4572100 2.7 1006490
20:00+28w4575100 5.7 1009408
24 january, sun
sun2423:00+28wnw3475100 1.0 1010369
02:00+26nnw3478100 1.5 1008179
05:00+27nw2374100 0.1 1008178
08:00+26nnw2273100 0.1 1009154
11:00+28w3468100 0.0 1010372
14:00+29wsw5667100 0.0 1007537
17:00+29wsw5672100 0.1 1007530
20:00+28wsw4574100 1.9 1009366
25 january, mon
mon2523:00+28wnw3473100 1.6 1010358
02:00+27wsw4576100 3.4 1008449
05:00+27w7979100 4.9 1008650
08:00+26wnw8977100 6.1 1009462
11:00+27wnw5675100 0.9 1009625
14:00+28wsw787999 1.5 1007876
17:00+27wsw7881100 3.8 1006648
20:00+27w6878100 8.2 1008756
26 january, tue
tue2623:00+26nw6885100 1.4 1009614
02:00+26wnw6783100 1.9 1007554
05:00+27wnw5675100 0.0 1007584
08:00+27nw3473100 0.0 1008305
11:00+28w2270100 0.0 1008327
14:00+28wsw456887 0.1 1006431
17:00+29wsw35676 0.0 1005431
20:00+28w347316 0.0 1006451